Total_Precipitation_Accumulation
1.23 1.50 1.45 1.20 1.18 1.25 1.30 1.47 1.69 1.59 1.48 1.55 1.70 1.83 1.78 1.77 1.79 1.63 1.47 1.37 1.16 1.03 1.00 0.98 0.97 0.97 1.00 1.04 1.09 1.22 1.32 1.36 1.43 1.61 1.86 2.16 2.44 2.69
1.37 1.43 1.46 1.38 1.36 1.39 1.43 1.52 1.71 1.73 1.62 1.59 1.83 1.94 1.78 1.64 1.78 1.72 1.55 1.46 1.22 1.05 0.94 0.92 0.94 0.95 0.95 0.94 0.89 0.89 0.90 0.92 0.96 1.02 1.10 1.24 1.44 1.76
1.51 1.45 1.46 1.57 1.62 1.53 1.54 1.57 1.70 1.87 1.84 1.75 1.91 1.95 1.82 1.60 1.56 1.58 1.55 1.51 1.33 1.24 1.06 0.97 0.93 0.91 0.89 0.90 0.92 0.90 0.84 0.78 0.75 0.79 0.85 0.91 0.95 1.00
1.56 1.69 1.71 1.71 1.66 1.60 1.66 1.69 1.81 2.04 2.04 1.92 1.90 1.92 1.84 1.71 1.61 1.47 1.32 1.29 1.30 1.40 1.22 1.07 0.98 0.94 0.90 0.86 0.84 0.81 0.78 0.74 0.70 0.66 0.67 0.69 0.73 0.80
1.35 1.61 1.85 2.08 1.98 1.82 1.76 1.74 1.80 1.91 2.06 1.96 1.91 2.04 2.01 1.87 1.71 1.48 1.32 1.26 1.10 1.16 1.18 1.09 0.97 0.89 0.84 0.80 0.78 0.76 0.71 0.70 0.70 0.71 0.71 0.71 0.71 0.74
1.23 1.34 1.48 1.69 1.86 1.97 1.81 1.68 1.71 1.83 1.99 2.03 2.11 2.37 2.42 2.23 1.92 1.67 1.54 1.39 1.24 1.04 1.06 1.02 0.96 0.88 0.86 0.83 0.80 0.78 0.76 0.76 0.77 0.77 0.77 0.77 0.74 0.73
1.31 1.29 1.24 1.32 1.45 1.61 1.63 1.76 1.79 1.80 1.92 2.03 2.25 2.66 2.68 2.41 1.98 1.74 1.65 1.57 1.38 1.19 1.09 0.96 0.88 0.81 0.82 0.88 0.86 0.82 0.76 0.73 0.72 0.73 0.77 0.79 0.78 0.78
1.50 1.44 1.32 1.22 1.24 1.34 1.40 1.51 1.66 1.72 1.80 1.91 2.10 2.41 2.54 2.40 2.10 1.87 1.66 1.52 1.40 1.27 1.18 1.13 0.99 0.93 0.84 0.77 0.85 0.82 0.78 0.74 0.70 0.67 0.66 0.69 0.73 0.74
1.67 1.70 1.43 1.22 1.28 1.25 1.33 1.35 1.37 1.47 1.57 1.67 1.86 2.07 2.36 2.46 2.30 1.93 1.76 1.61 1.39 1.27 1.22 1.19 1.08 0.96 0.86 0.82 0.87 0.74 0.70 0.68 0.63 0.60 0.57 0.55 0.56 0.59
1.42 1.42 1.39 1.26 1.19 1.20 1.22 1.17 1.12 1.14 1.19 1.24 1.37 1.63 1.92 2.27 2.46 2.23 2.04 1.85 1.60 1.38 1.17 1.16 1.12 1.00 0.87 0.79 0.85 0.74 0.63 0.59 0.57 0.52 0.49 0.49 0.50 0.52
1.17 1.18 1.22 1.14 1.12 0.99 0.96 0.99 0.97 0.94 0.93 0.94 1.01 1.18 1.44 1.76 2.12 2.24 1.96 1.64 1.49 1.29 1.12 1.03 0.98 1.00 0.95 0.81 0.77 0.80 0.67 0.59 0.56 0.55 0.51 0.49 0.46 0.46
1.29 1.27 1.23 1.09 1.01 0.84 0.79 0.85 0.83 0.77 0.78 0.77 0.77 0.83 0.96 1.22 1.59 1.74 1.78 1.54 1.30 1.17 0.91 0.84 0.81 0.83 0.88 0.76 0.61 0.60 0.60 0.63 0.61 0.56 0.54 0.52 0.51 0.39
1.36 1.40 1.33 1.16 0.88 0.71 0.63 0.65 0.64 0.66 0.71 0.72 0.72 0.76 0.89 1.06 1.23 1.45 1.60 1.53 1.28 1.00 0.82 0.78 0.72 0.73 0.76 0.71 0.66 0.60 0.56 0.56 0.58 0.61 0.61 0.62 0.61 0.51
1.24 1.35 1.34 1.17 0.91 0.72 0.60 0.54 0.51 0.48 0.53 0.59 0.62 0.63 0.69 0.81 0.99 1.25 1.47 1.47 1.33 1.10 0.93 0.90 0.85 0.78 0.74 0.68 0.62 0.61 0.61 0.60 0.59 0.58 0.58 0.68 0.66 0.64
0.98 1.24 1.33 1.21 1.04 0.86 0.76 0.68 0.57 0.48 0.49 0.51 0.48 0.47 0.52 0.64 0.86 1.19 1.55 1.68 1.59 1.35 1.17 1.03 0.95 0.94 0.94 0.80 0.65 0.58 0.61 0.63 0.58 0.58 0.59 0.62 0.60 0.59
0.86 1.02 1.16 1.17 1.05 0.96 0.86 0.73 0.60 0.56 0.54 0.53 0.52 0.55 0.63 0.74 0.87 1.03 1.36 1.63 1.67 1.48 1.27 1.15 1.07 1.08 1.04 0.89 0.75 0.59 0.53 0.56 0.56 0.56 0.60 0.61 0.63 0.61
0.90 0.95 1.08 1.17 1.18 1.13 1.10 0.99 0.86 0.78 0.69 0.65 0.70 0.71 0.76 0.82 0.86 0.96 1.18 1.38 1.39 1.26 1.16 1.15 1.15 1.14 1.07 1.03 0.90 0.65 0.54 0.50 0.51 0.58 0.67 0.66 0.63 0.67
0.66 0.78 0.95 1.10 1.22 1.26 1.28 1.22 1.09 0.98 0.89 0.87 0.88 0.86 0.84 0.89 0.90 0.93 1.09 1.25 1.27 1.20 1.14 1.08 1.17 1.28 1.22 1.03 0.85 0.72 0.59 0.51 0.51 0.61 0.67 0.67 0.62 0.62
0.47 0.62 0.78 0.92 1.09 1.23 1.27 1.22 1.14 1.12 1.13 1.10 1.08 1.04 0.98 0.97 1.02 1.00 1.01 1.14 1.21 1.18 1.19 1.17 1.18 1.20 1.17 0.90 0.64 0.60 0.65 0.63 0.66 0.69 0.71 0.69 0.60 0.58
0.46 0.61 0.76 0.88 1.01 1.17 1.22 1.21 1.22 1.23 1.23 1.18 1.19 1.20 1.17 1.12 1.11 1.08 1.03 1.04 1.13 1.21 1.22 1.22 1.16 1.08 1.00 0.90 0.79 0.66 0.64 0.76 0.83 0.79 0.77 0.78 0.71 0.69
0.60 0.64 0.70 0.80 0.95 1.11 1.23 1.27 1.29 1.27 1.26 1.27 1.27 1.28 1.30 1.26 1.15 1.14 1.17 1.17 1.14 1.18 1.13 1.01 0.98 1.10 1.19 1.23 1.07 0.77 0.64 0.66 0.78 0.84 0.88 0.96 0.87 0.80
0.74 0.76 0.76 0.82 0.99 1.14 1.27 1.36 1.40 1.37 1.32 1.33 1.33 1.33 1.32 1.31 1.22 1.21 1.29 1.27 1.14 1.07 1.07 1.09 1.23 1.38 1.36 1.26 1.00 0.80 0.74 0.76 0.78 0.81 0.85 0.90 0.89 0.79
0.84 0.81 0.76 0.79 0.95 1.11 1.21 1.32 1.41 1.40 1.33 1.30 1.36 1.40 1.33 1.29 1.24 1.25 1.29 1.33 1.28 1.21 1.23 1.26 1.31 1.35 1.30 1.26 1.18 1.01 0.87 0.85 0.87 0.80 0.67 0.63 0.62 0.61